Regional Weather Roundup
Issued by NWS

Home | Current Version | Previous Version | Graphics & Text | Print | Product List | Glossary On
Versions: 1 2 3 4 5 6 7 8 9 10 11 12 13 14 15 16 17 18 19 20 21 22 23 24 25 26 27 28 29 30 31 32 33 34 35 36 37 38 39 40 41 42 43 44 45 46 47 48 49 50
000
ASUS43 KIND 261700
RWRIN

WEATHER ROUNDUP FOR INDIANA
NATIONAL WEATHER SERVICE INDIANAPOLIS IN
100 PM EDT SAT MAY 26 2018

NOTE: "FAIR" INDICATES FEW OR NO CLOUDS BELOW 12,000 FEET WITH NO
SIGNIFICANT WEATHER AND/OR OBSTRUCTIONS TO VISIBILITY.

* - STATION DOES NOT REPORT WEATHER SUCH AS PRECIPITATION OR FOG.

+ - STATION NOT QUALITY CONTROLLED BY THE NATIONAL WEATHER SERVICE.
    USE DATA WITH CAUTION...ESPECIALLY DEWPOINT AND RELATIVE
    HUMIDITY OBSERVATIONS.

INZ001>003-010>013-019-020-261800-
NORTHWEST INDIANA

CITY           SKY/WX    TMP DP  RH WIND       PRES   REMARKS
GARY /AIRPORT/ MOSUNNY   82  61  47 W5        29.80S
KNOX *+        FAIR      81  64  57 SW8       29.80F
LA PORTE +     FAIR      82  65  55 S5        29.81F
MICHIGAN CITY+ FAIR      81  59  47 W6        29.80F
MONTICELLO +   CLOUDY    77  69  76 S6        29.82S
RENSSELAER +   FAIR      81  63  54 S8        29.82S

$$

LMZ046-743>745-261800-
SOUTHERN LAKE MICHIGAN

STATION/POSITION TIME  TEMP    WIND        PRES    WAVE
                       AIR SEA DIR/SP/G            HT
                 (UTC) (F)     (DEG/KT/KT) (MB)    (FT)
BURNS HARBOR     1640   74        CALM     1009.8R
MICHIGAN CITY    1630   76     260/  7/  7   N/A
5NW MICH CITY    1650   74 62   CALM  /  2   N/A     0

$$

INZ004-005-014>016-021>024-261800-
NORTH CENTRAL INDIANA

CITY           SKY/WX    TMP DP  RH WIND       PRES   REMARKS
ELKHART        MOSUNNY   82  64  54 NW6       29.80F
GOSHEN         PTSUNNY   81  71  71 SW7       29.81F
LOGANSPORT +   PTSUNNY   77  64  65 SW6       29.83F
ROCHESTER +    FAIR      79  68  69 S5        29.83F
SOUTH BEND     FAIR      81  67  62 SW8       29.81S
WARSAW +       PTSUNNY   75  68  78 SW3       29.83S

$$

INZ006>009-017-018-025>027-261800-
NORTHEAST INDIANA

CITY           SKY/WX    TMP DP  RH WIND       PRES   REMARKS
ANGOLA *+      PTSUNNY   79  68  69 SW9       29.82S
AUBURN +       FAIR      79  68  69 SW7       29.83F
FORT WAYNE     CLOUDY    79  68  69 SW7       29.83S
HUNTINGTON +   PTSUNNY   79  68  70 SW6       29.83S
KENDALLVILLE + FAIR      77  65  66 SW6       29.84F

$$

INZ028-029-035-036-043>045-051>053-261800-
WEST CENTRAL INDIANA

CITY           SKY/WX    TMP DP  RH WIND       PRES   REMARKS
CRAWFORDSVL +  PTSUNNY   77  67  70 W6        29.84S
GREENCASTLE +  FAIR      79  68  69 SW3       29.85F
LAFAYETTE      PTSUNNY   76  69  79 VRB5      29.82F
TERRE HAUTE    FAIR      82  70  66 CALM      29.84F

$$

INZ030>032-037>040-046>048-054>057-064-065-261800-
CENTRAL INDIANA

CITY           SKY/WX    TMP DP  RH WIND       PRES   REMARKS
COLUMBUS       PTSUNNY   81  64  57 SW14      29.86S
FRANKFORT +    CLOUDY    78  71  77 W6        29.86S
GREENWOOD *+   PTSUNNY   78  69  75 SW8       29.86S
INDIANAPOLIS   PTSUNNY   80  68  66 SW10      29.84F
-EAGLE CREEK   PTSUNNY   79  68  69 VRB7      29.84S
KOKOMO +       CLOUDY    75  67  76 SW12      29.85S
MT COMFORT *+  PTSUNNY   75  73  94 S10       29.86R
SHELBYVILLE    CLOUDY    78  69  73 SW14      29.85F

$$

INZ033-034-041-042-049-050-058-059-261800-
EAST CENTRAL INDIANA

CITY           SKY/WX    TMP DP  RH WIND       PRES   REMARKS
MUNCIE         PTSUNNY   81  67  62 SW12      29.83F
RICHMOND +     FAIR      81  66  61 S12G17    29.86F

$$

INZ060-061-067>069-081>083-085>088-261800-
SOUTHWEST INDIANA

CITY           SKY/WX    TMP DP  RH WIND       PRES   REMARKS
EVANSVILLE     FAIR      82  69  64 SW9       29.86F
HUNTINGBURG +  PTSUNNY   82  70  66 SW9       29.87S
WASHINGTON +   PTSUNNY   81  67  62 SW6       29.86F

$$

INZ062-063-066-070>080-084-089>092-261800-
SOUTH CENTRAL AND SOUTHEAST INDIANA

CITY           SKY/WX    TMP DP  RH WIND       PRES   REMARKS
BLOOMINGTON    PTSUNNY   80  69  69 SW13      29.86S
FRENCH LICK *+ PTSUNNY   79  59  50 SW6       29.88S
SEYMOUR +      FAIR      84  68  58 W10       29.85F

$$





USA.gov is the U.S. government's official web portal to all federal, state and local government web resources and services.